Location: Grand Lay
(47.3253°N, 0.9468°E)
Time: 18:33:41
(UTC+00:00)

Gbstr 26 Del rocket - Pass Details

Date: 16 April 2026
Orbit: 490 x 1216 km, 51.8° (Epoch: 13 May)

Event Time Altitude Azimuth Distance (km) Brightness Sun altitude
Exits shadow 02:49:42 25° 309° (NW) 1,028 4.1 -20.9°
Maximum altitude 02:51:25 42° 5° (N) 711 3.7 -20.6°
Drops below altitude 10° 02:54:59 10° 78° (ENE) 1,691 6.2 -20.2°
Sets 02:57:15 0° 85° (E) 2,605 7.1 -19.9°
